{"data":{"norad_id":61960,"epoch":"2026-05-25T04:38:05.015904Z","epoch_age_seconds":58465,"freshness":"FRESH","line1":"1 61960U 24210B   26145.19311361  .00007836  00000+0  29384-3 0  9996","line2":"2 61960  42.9999 107.4790 0000963 252.0787 107.9960 15.27593236 86484","mean_motion":15.27593236,"eccentricity":9.63e-5,"inclination_deg":42.9999,"raan_deg":107.479,"arg_perigee_deg":252.0787,"mean_anomaly_deg":107.996,"bstar":0.00029384,"rev_number":8648,"period_min":94.265931929015,"perigee_km":482.34873457581,"apogee_km":483.67019138459,"semimajor_km":6861.1464629802,"source":"CELESTRAK","updated_at":"2026-05-25T13:38:19.490985Z"}}